[[{"header":{"parameterUnit":"m.s-1","parameterCategory":1,"la1":30.2991,"la2":30.254,"lo1":-89.0895,"lo2":-89.0444,"dy":0.0017,"dx":0.0017,"nx":28,"ny":28,"refTime":"2024-11-28T09:00:00:Z","depth":0,"parameterNumber":2,"parameterNumberName":"U-component_of_WINDS"},"data":[0,0,0,0,0,0,0,0,0,0,0,0,0,0,0,0,0,0,0,0,0,0,0,0,0,0,0,0,0,0,0,0,0,0,0,0,0,0,0,0,0,0,0,0,0,0,0,0,0,0,0,0,0,0,0,0,0,0,-0.7582,-0.7582,0,-0.7553,-0.7552,-0.7552,-0.7492,-0.7491,-0.749,-0.7489,-0.7461,-0.7461,-0.7462,0,0,0,0,0,0,0,0,0,0,0,0,0,-0.7588,-0.7588,-0.7582,-0.7582,-0.7581,-0.7553,-0.7552,-0.7552,-0.7492,-0.7491,-0.7489,-0.7488,-0.7461,-0.7461,-0.7462,0,0,0,0,0,0,0,0,0,0,0,0,0,-0.7575,-0.7588,-0.7582,-0.7548,-0.7545,-0.7553,-0.7552,-0.7552,-0.7493,-0.7491,-0.7489,-0.7487,-0.7461,-0.7461,-0.7462,-0.7501,0,0,-0.7464,-0.7464,0,0,0,0,0,0,0,0,-0.7576,-0.7575,-0.7553,-0.755,-0.7547,-0.7524,-0.7544,-0.7535,-0.7493,-0.7513,-0.7489,-0.7486,-0.7484,-0.7482,-0.7481,-0.75,-0.7499,-0.7464,-0.7464,-0.7464,-0.7464,0,0,0,0,0,0,0,-0.7577,-0.7576,-0.757,-0.7553,-0.7549,-0.7535,-0.7531,-0.7542,-0.7509,-0.7511,-0.7506,-0.7503,-0.7482,-0.748,-0.748,-0.7499,-0.7464,-0.7464,-0.7465,-0.7465,-0.7548,-0.7549,0,0,0,0,0,0,-0.7582,-0.7577,-0.7571,-0.7569,-0.7557,-0.7536,-0.7532,-0.7533,-0.7508,-0.7503,-0.7505,-0.7501,-0.748,-0.7479,-0.7479,-0.7523,-0.7464,-0.7465,-0.7465,-0.7546,-0.7548,-0.755,0,0,0,0,0,0,-0.7583,-0.7582,-0.7573,-0.7572,-0.7569,-0.7538,-0.754,-0.7534,-0.7532,-0.7504,-0.7498,-0.751,-0.7479,-0.7478,-0.7496,-0.7521,-0.7465,-0.7466,-0.7544,-0.7546,-0.7549,-0.7612,0,0,0,0,0,0,-0.7583,-0.7583,-0.7597,-0.7573,-0.757,-0.759,-0.7542,-0.7534,-0.7533,-0.7527,-0.7507,-0.7502,-0.7477,-0.7495,-0.7496,-0.7521,-0.7466,-0.7541,-0.7545,-0.7548,-0.7608,-0.7617,-0.7624,0,0,0,0,0,-0.7583,-0.7617,-0.7598,-0.7598,-0.7587,-0.7592,-0.759,-0.756,-0.7535,-0.755,-0.7531,-0.7503,-0.7518,-0.7498,-0.7498,-0.7523,-0.754,-0.7544,-0.7548,-0.7604,-0.7615,-0.7624,0,0,0,0,0,0,-0.7647,-0.7613,-0.7592,-0.7619,-0.7608,-0.7582,-0.7599,-0.7573,-0.7571,-0.7565,-0.7529,-0.7525,-0.7548,-0.7537,-0.7515,-0.756,-0.7524,-0.7528,-0.7566,-0.7576,-0.7585,-0.7587,-0.7467,0,0,0,0,0,-0.7664,-0.767,-0.764,-0.7666,-0.7662,-0.7632,-0.7633,-0.761,-0.7598,-0.7594,-0.7577,-0.7567,-0.7569,-0.7572,-0.7573,-0.7605,-0.76,-0.7622,-0.7631,-0.7638,-0.7643,-0.7658,-0.7668,-0.7564,-0.7564,-0.7564,0,0,-0.77,-0.7682,-0.7688,-0.7679,-0.7668,-0.7675,-0.7629,-0.7639,-0.7644,-0.7596,-0.7612,-0.7599,-0.7585,-0.761,-0.7621,-0.7602,-0.767,-0.7643,-0.7649,-0.765,-0.7664,-0.7674,-0.7682,-0.7567,-0.7566,-0.7566,0,0,-0.7768,-0.7755,-0.7775,-0.7765,-0.7749,-0.7728,-0.7733,-0.7709,-0.7699,-0.7713,-0.7677,-0.7683,-0.7688,-0.768,-0.7676,-0.7739,-0.7713,-0.774,-0.7785,-0.7801,-0.7809,-0.7816,-0.7839,-0.7848,-0.7745,-0.7745,-0.7745,0,-0.7815,-0.7824,-0.7789,-0.7801,-0.7798,-0.7753,-0.7773,-0.7765,-0.7751,-0.775,-0.7729,-0.7733,-0.7721,-0.7744,-0.7759,-0.7757,-0.7762,-0.7744,-0.781,-0.7817,-0.7823,-0.7845,-0.7853,-0.7749,-0.7748,-0.7748,-0.7748,0,-0.7882,-0.7889,-0.7907,-0.7893,-0.7891,-0.7908,-0.7876,-0.7878,-0.7856,-0.7837,-0.7852,-0.7836,-0.7832,-0.7835,-0.7814,-0.7854,-0.7843,-0.7817,-0.7781,-0.7837,-0.7857,-0.7865,-0.7754,-0.7753,-0.7751,-0.7751,0,0,-0.7992,-0.7957,-0.7964,-0.7957,-0.7935,-0.7939,-0.7953,-0.7948,-0.7951,-0.7942,-0.7953,-0.7957,-0.7932,-0.7928,-0.7905,-0.7918,-0.7969,-0.789,-0.7889,-0.7906,-0.8013,-0.8034,-0.8044,-0.7951,-0.7952,-0.7953,-0.8014,0,-0.8057,-0.8078,-0.8046,-0.8075,-0.808,-0.8036,-0.8048,-0.8036,-0.8019,-0.8021,-0.8001,-0.8005,-0.7972,-0.7969,-0.798,-0.7961,-0.7991,-0.7956,-0.7961,-0.7962,-0.7967,-0.8054,-0.8077,-0.8135,-0.8022,-0.8023,-0.8024,0,-0.8136,-0.8129,-0.8158,-0.8132,-0.8133,-0.8145,-0.8137,-0.8139,-0.8125,-0.8111,-0.8105,-0.8077,-0.8088,-0.8052,-0.8067,-0.8044,-0.8044,-0.8035,-0.8037,-0.8037,-0.7998,-0.8058,-0.8153,-0.8163,-0.8036,-0.8035,-0.8034,0,-0.8214,-0.8212,-0.8228,-0.8223,-0.8194,-0.8203,-0.8192,-0.8174,-0.8173,-0.8166,-0.8165,-0.816,-0.8158,-0.8154,-0.8125,-0.8101,-0.8145,-0.8106,-0.8134,-0.8135,-0.8147,-0.8147,-0.8244,-0.8145,-0.8145,-0.8145,-0.8144,0,-0.829,-0.831,-0.8263,-0.8274,-0.8294,-0.8257,-0.8278,-0.8262,-0.8247,-0.8253,-0.8215,-0.8222,-0.8183,-0.8186,-0.8163,-0.8179,-0.8178,-0.8168,-0.8162,-0.8172,-0.8174,-0.8173,-0.8168,-0.8147,-0.8146,-0.8146,-0.8145,0,-0.8382,-0.8352,-0.8367,-0.8337,-0.833,-0.8346,-0.8321,-0.833,-0.8308,-0.8317,-0.8317,-0.8285,-0.8286,-0.8256,-0.8252,-0.8236,-0.8263,-0.8249,-0.8268,-0.8264,-0.8294,-0.8292,-0.8396,-0.8408,-0.83,-0.8301,-0.8302,0,-0.8434,-0.8447,-0.8418,-0.8419,-0.8409,-0.8412,-0.841,-0.8373,-0.8372,-0.8355,-0.8366,-0.8364,-0.836,-0.8364,-0.834,-0.8336,-0.8323,-0.8359,-0.8322,-0.8332,-0.8324,-0.8324,-0.8325,-0.8368,-0.8369,-0.837,-0.8371,0,-0.8528,-0.8512,-0.851,-0.8502,-0.85,-0.8493,-0.8483,-0.8486,-0.8446,-0.8447,-0.8447,-0.8444,-0.8438,-0.8437,-0.8428,-0.8416,-0.8388,-0.8382,-0.8389,-0.84,-0.8411,-0.8406,-0.8291,-0.8381,-0.838,-0.8379,-0.8379,-0.8378,-0.8602,-0.8612,-0.8592,-0.8591,-0.8579,-0.857,-0.8577,-0.8555,-0.8554,-0.8547,-0.8525,-0.8528,-0.8512,-0.8497,-0.8487,-0.849,-0.8472,-0.8481,-0.8484,-0.8487,-0.8493,-0.8409,-0.8488,-0.8487,-0.8487,-0.8487,-0.8487,0,-0.8695,-0.868,-0.8679,-0.8665,-0.8664,-0.8635,-0.8622,-0.8623,-0.8626,-0.8613,-0.8609,-0.8609,-0.8607,-0.8582,-0.8576,-0.8583,-0.857,-0.8583,-0.8583,-0.8581,-0.8509,-0.8504,-0.8594,-0.8594,-0.8594,-0.8594,-0.8594,-0.8594,-0.8744,-0.8759,-0.874,-0.8748,-0.8733,-0.8735,-0.873,-0.8722,-0.871,-0.8712,-0.8709,-0.8692,-0.8674,-0.8666,-0.8663,-0.8655,-0.8656,-0.8674,-0.8662,-0.8596,-0.8586,-0.8576,-0.8571,-0.8674,-0.8674,-0.8734,-0.8735,-0.8735]},{"header":{"parameterUnit":"m.s-1","parameterCategory":1,"la1":30.2991,"la2":30.254,"lo1":-89.0895,"lo2":-89.0444,"dy":0.0017,"dx":0.0017,"nx":28,"ny":28,"refTime":"2024-11-28T09:00:00:Z","depth":0,"parameterNumber":3,"parameterNumberName":"V-component_of_WINDS"},"data":[0,0,0,0,0,0,0,0,0,0,0,0,0,0,0,0,0,0,0,0,0,0,0,0,0,0,0,0,0,0,0,0,0,0,0,0,0,0,0,0,0,0,0,0,0,0,0,0,0,0,0,0,0,0,0,0,0,0,-7.2462,-7.2463,0,-7.2578,-7.258,-7.2581,-7.251,-7.2506,-7.2503,-7.25,-7.2613,-7.2619,-7.2625,0,0,0,0,0,0,0,0,0,0,0,0,0,-7.2173,-7.2178,-7.2462,-7.2463,-7.2465,-7.2578,-7.258,-7.2581,-7.251,-7.2506,-7.2502,-7.2498,-7.2611,-7.2619,-7.2626,0,0,0,0,0,0,0,0,0,0,0,0,0,-7.2294,-7.218,-7.2462,-7.2443,-7.2443,-7.2578,-7.258,-7.2582,-7.2511,-7.2506,-7.2501,-7.2496,-7.2609,-7.2618,-7.2627,-7.2785,0,0,-7.2655,-7.2659,0,0,0,0,0,0,0,0,-7.2288,-7.2305,-7.2444,-7.2445,-7.2444,-7.2524,-7.2519,-7.265,-7.2512,-7.2485,-7.25,-7.2494,-7.2587,-7.2598,-7.2631,-7.2791,-7.2795,-7.2656,-7.2662,-7.2666,-7.2668,0,0,0,0,0,0,0,-7.2279,-7.23,-7.2508,-7.2446,-7.2446,-7.2427,-7.2439,-7.2544,-7.2563,-7.2487,-7.2482,-7.2497,-7.2586,-7.2622,-7.2633,-7.2797,-7.2656,-7.2664,-7.267,-7.2673,-7.3092,-7.3097,0,0,0,0,0,0,-7.2273,-7.2293,-7.2504,-7.2511,-7.2352,-7.2437,-7.245,-7.2504,-7.2562,-7.2566,-7.2501,-7.2493,-7.2609,-7.2622,-7.2637,-7.2826,-7.2666,-7.2674,-7.268,-7.3086,-7.3093,-7.3099,0,0,0,0,0,0,-7.2267,-7.2293,-7.2499,-7.2401,-7.2426,-7.2447,-7.2508,-7.2509,-7.2544,-7.2573,-7.2575,-7.2535,-7.2605,-7.2624,-7.2749,-7.2829,-7.2678,-7.2687,-7.308,-7.3088,-7.3096,-7.3205,0,0,0,0,0,0,-7.2259,-7.2291,-7.2352,-7.2403,-7.2431,-7.2612,-7.2513,-7.2515,-7.2561,-7.2552,-7.2605,-7.2608,-7.2603,-7.2736,-7.2758,-7.2839,-7.2694,-7.3073,-7.3084,-7.3093,-7.3195,-7.3216,-7.3235,0,0,0,0,0,-7.2249,-7.2377,-7.2356,-7.2382,-7.2509,-7.2617,-7.2633,-7.2625,-7.2568,-7.2629,-7.2647,-7.2607,-7.2816,-7.2749,-7.2774,-7.2858,-7.3068,-7.308,-7.3093,-7.3186,-7.3212,-7.3234,0,0,0,0,0,0,-7.2334,-7.2384,-7.236,-7.2509,-7.256,-7.2604,-7.2681,-7.2653,-7.2719,-7.2708,-7.2694,-7.2706,-7.2838,-7.286,-7.2784,-7.3014,-7.2933,-7.2951,-7.2995,-7.302,-7.304,-7.3031,-7.2702,0,0,0,0,0,-7.237,-7.2455,-7.2493,-7.2621,-7.2647,-7.266,-7.2707,-7.2697,-7.2747,-7.2768,-7.2795,-7.2844,-7.2921,-7.2972,-7.3044,-7.3197,-7.3207,-7.3268,-7.3288,-7.3304,-7.332,-7.3402,-7.3429,-7.314,-7.314,-7.314,0,0,-7.2445,-7.2483,-7.2537,-7.2639,-7.2676,-7.2763,-7.2679,-7.2773,-7.2837,-7.2781,-7.2902,-7.2924,-7.2978,-7.3118,-7.3181,-7.3141,-7.3402,-7.332,-7.3333,-7.334,-7.3418,-7.3445,-7.3469,-7.3149,-7.3147,-7.3146,0,0,-7.2626,-7.2664,-7.2775,-7.2815,-7.2873,-7.2881,-7.2908,-7.2958,-7.2971,-7.3092,-7.3052,-7.3126,-7.3259,-7.3299,-7.3337,-7.3534,-7.3499,-7.3558,-7.3663,-7.3743,-7.3766,-7.3786,-7.3856,-7.3881,-7.3574,-7.3574,-7.3574,0,-7.2712,-7.2843,-7.2834,-7.2933,-7.2979,-7.2934,-7.3045,-7.3084,-7.3162,-7.3194,-7.3148,-7.3315,-7.3348,-7.3497,-7.3545,-7.3577,-7.3606,-7.3552,-7.3764,-7.3784,-7.3803,-7.3869,-7.3895,-7.3581,-7.358,-7.3579,-7.3578,0,-7.2945,-7.3036,-7.3118,-7.3197,-7.3252,-7.3356,-7.3362,-7.3418,-7.3404,-7.3416,-7.3539,-7.3578,-7.3657,-7.3691,-7.3677,-7.3839,-7.3812,-7.3766,-7.3683,-7.3837,-7.3899,-7.3925,-7.359,-7.3588,-7.3586,-7.3584,0,0,-7.3182,-7.3257,-7.3287,-7.3322,-7.3384,-7.3454,-7.3555,-7.3635,-7.3683,-7.3739,-7.3823,-7.3937,-7.3894,-7.3937,-7.3927,-7.3998,-7.4151,-7.3943,-7.3944,-7.398,-7.4331,-7.4365,-7.4395,-7.4129,-7.4133,-7.4137,-7.4326,0,-7.3367,-7.3547,-7.3543,-7.3709,-7.3793,-7.3752,-7.384,-7.3887,-7.3901,-7.3973,-7.3987,-7.4069,-7.4007,-7.4032,-7.4101,-7.4118,-7.4222,-7.4105,-7.4205,-7.4209,-7.4193,-7.4427,-7.4464,-7.464,-7.435,-7.4354,-7.4357,0,-7.3607,-7.3673,-7.3849,-7.3899,-7.3933,-7.4013,-7.4086,-7.4155,-7.4207,-7.4212,-7.4261,-7.424,-7.4341,-7.4257,-7.4395,-7.4316,-7.4357,-7.4372,-7.4378,-7.4387,-7.4292,-7.4442,-7.4696,-7.4723,-7.4396,-7.4393,-7.439,0,-7.3762,-7.3895,-7.4017,-7.4049,-7.411,-7.4167,-7.4195,-7.4242,-7.429,-7.4353,-7.4384,-7.4457,-7.4497,-7.4553,-7.4551,-7.449,-7.4692,-7.4607,-7.4698,-7.4698,-7.4742,-7.4739,-7.5006,-7.4769,-7.4768,-7.4768,-7.4767,0,-7.3969,-7.4078,-7.4088,-7.4163,-7.4283,-7.4277,-7.4395,-7.4417,-7.4459,-7.4537,-7.4505,-7.4578,-7.4572,-7.4645,-7.4644,-7.4759,-7.4777,-7.4783,-7.4782,-7.4786,-7.4785,-7.4812,-7.48,-7.4775,-7.4773,-7.4772,-7.4771,0,-7.4163,-7.4174,-7.4305,-7.4353,-7.4367,-7.4454,-7.4494,-7.4565,-7.4576,-7.4675,-7.4697,-7.4715,-7.48,-7.4804,-7.4901,-7.49,-7.504,-7.5024,-7.5023,-7.502,-7.511,-7.5102,-7.5404,-7.5443,-7.5181,-7.5183,-7.5185,0,-7.4294,-7.4377,-7.4435,-7.4486,-7.4518,-7.4599,-7.4649,-7.4645,-7.4697,-7.4763,-7.4825,-7.4907,-7.4973,-7.5109,-7.513,-7.5203,-7.5189,-7.529,-7.52,-7.5202,-7.519,-7.5186,-7.5193,-7.5307,-7.531,-7.5313,-7.5315,0,-7.4526,-7.4527,-7.4601,-7.4678,-7.4738,-7.4797,-7.4852,-7.4895,-7.4897,-7.4957,-7.5045,-7.5096,-7.5196,-7.5277,-7.5349,-7.5375,-7.5345,-7.5343,-7.5368,-7.5373,-7.5369,-7.5372,-7.5071,-7.5336,-7.5334,-7.5332,-7.5331,-7.533,-7.4692,-7.4764,-7.4816,-7.4899,-7.4941,-7.4993,-7.5062,-7.5083,-7.5157,-7.5239,-7.5232,-7.5328,-7.5377,-7.5471,-7.5503,-7.5577,-7.5542,-7.5578,-7.5588,-7.5596,-7.5606,-7.5358,-7.559,-7.559,-7.5589,-7.5589,-7.5588,0,-7.4922,-7.4954,-7.503,-7.5109,-7.5175,-7.5143,-7.5202,-7.5258,-7.5345,-7.5393,-7.5459,-7.5559,-7.5638,-7.5665,-7.5741,-7.5795,-7.5783,-7.5815,-7.5811,-7.5817,-7.5633,-7.5604,-7.5824,-7.5824,-7.5823,-7.5823,-7.5823,-7.5823,-7.5049,-7.517,-7.5178,-7.5318,-7.5348,-7.5444,-7.5481,-7.5528,-7.5567,-7.5681,-7.5747,-7.5765,-7.5805,-7.5884,-7.5954,-7.596,-7.5989,-7.6027,-7.6027,-7.5854,-7.583,-7.5808,-7.578,-7.6034,-7.6034,-7.6205,-7.6207,-7.6208]}]]